Weather History for KCIN - January, 2013

Change the Weather History Date:

Sunday, January 6, 2013

  Actual Average Record
Temperature  
Mean Temperature 17 °F -  
Max Temperature 24 °F 24 °F 53 °F (2012)
Min Temperature 10 °F 8 °F -16 °F (1971)
Degree Days  
Heating Degree Days 48    
Moisture  
Dew Point 13 °F    
Average Humidity 81    
Maximum Humidity 86    
Minimum Humidity 68    
Precipitation  
Precipitation 0.00 in - - ()
Sea Level Pressure  
Sea Level Pressure 30.20 in    
Wind  
Wind Speed 12 mph (WSW)    
Max Wind Speed 20 mph    
Max Gust Speed 25 mph    
Visibility 10 miles    
Events Snow    
Averages and records for this station are not official NWS values.
T = Trace of Precipitation, MM = Missing Value Source: NWS Daily Summary

Daily Weather History Graph

Daily Weather History Graph

Search for Another Location

Airport or City:

Trip Planner

Search our weather history database for the weather conditions in past years. The results will help you decide how hot, cold, wet, or windy it might be!

Date:

Astronomy

Jan. 06, 2013 Rise Set
Actual Time 7:47 AM CST 5:03 PM CST
Civil Twilight 7:15 AM CST 5:34 PM CST
Nautical Twilight 6:41 AM CST 6:09 PM CST
Astronomical Twilight 6:07 AM CST 6:43 PM CST
Moon 2:00 AM CST (1/6) 12:33 PM CST (1/6)
Length of Visible Light 10h 18m
Length of Day
9h 15m
Waning Crescent, 33% of the Moon is Illuminated
Jan 6
Waning Crescent
Jan 11
New
Jan 18
First Quarter
Jan 26
Full
Feb 3
Last Quarter

Hourly Weather History & Observations

Time (CST) Temp. Windchill Dew Point Humidity Pressure Visibility Wind Dir Wind Speed Gust Speed Precip Events Conditions
12:15 AM 15.8 °F -1.1 °F 10.4 °F 79% 30.12 in 10.0 mi NW 19.6 mph - N/A   Mostly Cloudy
12:35 AM 15.8 °F -0.2 °F 12.2 °F 86% 30.12 in 9.0 mi NW 17.3 mph - N/A Snow Light Snow
12:55 AM 15.8 °F 0.9 °F 12.2 °F 86% 30.12 in 10.0 mi NW 15.0 mph - N/A   Scattered Clouds
1:15 AM 15.8 °F 0.9 °F 10.4 °F 79% 30.12 in 10.0 mi NW 15.0 mph 20.7 mph N/A   Clear
1:35 AM 15.8 °F 0.9 °F 12.2 °F 86% 30.14 in 10.0 mi WNW 15.0 mph 21.9 mph N/A   Clear
1:55 AM 15.8 °F 0.9 °F 12.2 °F 86% 30.14 in 10.0 mi NW 15.0 mph - N/A   Partly Cloudy
2:15 AM 15.8 °F -0.6 °F 12.2 °F 86% 30.15 in 10.0 mi WNW 18.4 mph - N/A   Partly Cloudy
2:35 AM 15.8 °F 0.3 °F 12.2 °F 86% 30.15 in 10.0 mi WNW 16.1 mph 25.3 mph N/A   Clear
2:55 AM 15.8 °F -0.2 °F 10.4 °F 79% 30.16 in 10.0 mi NW 17.3 mph - N/A   Clear
3:15 AM 15.8 °F -0.2 °F 10.4 °F 79% 30.16 in 10.0 mi WNW 17.3 mph - N/A   Clear
3:35 AM 15.8 °F 0.3 °F 10.4 °F 79% 30.16 in 10.0 mi WNW 16.1 mph - N/A   Clear
3:55 AM 14.0 °F -2.0 °F 8.6 °F 79% 30.17 in 10.0 mi WNW 16.1 mph - N/A   Clear
4:15 AM 14.0 °F -1.4 °F 8.6 °F 79% 30.18 in 10.0 mi WNW 15.0 mph 21.9 mph N/A   Clear
4:35 AM 14.0 °F -0.8 °F 8.6 °F 79% 30.18 in 10.0 mi WNW 13.8 mph - N/A   Clear
4:55 AM 14.0 °F -0.8 °F 8.6 °F 79% 30.19 in 10.0 mi WNW 13.8 mph - N/A   Clear
5:15 AM 12.2 °F -1.8 °F 8.6 °F 85% 30.19 in 10.0 mi WNW 11.5 mph - N/A   Clear
5:35 AM 12.2 °F -1.8 °F 6.8 °F 79% 30.20 in 10.0 mi West 11.5 mph - N/A   Clear
5:55 AM 12.2 °F -2.5 °F 8.6 °F 85% 30.21 in 10.0 mi WNW 12.7 mph - N/A   Clear
6:35 AM 12.2 °F -0.2 °F 8.6 °F 85% 30.22 in 10.0 mi WNW 9.2 mph - N/A   Clear
6:55 AM 10.4 °F -1.5 °F 6.8 °F 85% 30.23 in 10.0 mi West 8.1 mph - N/A   Clear
7:15 AM 10.4 °F -3.3 °F 6.8 °F 85% 30.22 in 10.0 mi West 10.4 mph - N/A   Clear
7:35 AM 10.4 °F -3.3 °F 6.8 °F 85% 30.22 in 10.0 mi West 10.4 mph - N/A   Clear
7:55 AM 10.4 °F - 6.8 °F 85% 30.22 in - Calm Calm - N/A   Clear
8:15 AM 10.4 °F -3.3 °F 6.8 °F 85% 30.23 in 10.0 mi NW 10.4 mph - N/A   Clear
8:35 AM 10.4 °F - 6.8 °F 85% 30.24 in 10.0 mi Calm Calm - N/A   Clear
8:55 AM 10.4 °F 4.0 °F 6.8 °F 85% 30.25 in 10.0 mi West 3.5 mph - N/A   Clear
9:15 AM 14.0 °F 8.2 °F 8.6 °F 79% 30.26 in 10.0 mi WNW 3.5 mph - N/A   Clear
9:35 AM 12.2 °F 2.9 °F 8.6 °F 85% 30.27 in 10.0 mi West 5.8 mph - N/A   Clear
9:55 AM 14.0 °F -0.2 °F 10.4 °F 86% 30.27 in 10.0 mi West 12.7 mph - N/A   Clear
10:15 AM 15.8 °F 5.1 °F 10.4 °F 79% 30.27 in 10.0 mi West 8.1 mph - N/A   Clear
10:35 AM 17.6 °F 9.3 °F 12.2 °F 79% 30.28 in 10.0 mi WSW 5.8 mph - N/A   Clear
10:55 AM 17.6 °F 6.4 °F 12.2 °F 79% 30.28 in 10.0 mi West 9.2 mph - N/A   Clear
11:15 AM 19.4 °F 10.4 °F 12.2 °F 74% 30.28 in 10.0 mi West 6.9 mph - N/A   Clear
11:35 AM 19.4 °F 11.5 °F 14.0 °F 80% 30.27 in 10.0 mi West 5.8 mph - N/A   Clear
11:55 AM 21.2 °F - 14.0 °F 74% 30.26 in 10.0 mi Calm Calm - N/A   Clear
12:15 PM 23.0 °F - 14.0 °F 68% 30.25 in 10.0 mi Calm Calm - N/A   Clear
12:35 PM 23.0 °F 17.0 °F 15.8 °F 74% 30.25 in 10.0 mi West 4.6 mph - N/A   Clear
12:55 PM 23.0 °F 15.8 °F 15.8 °F 74% 30.25 in 10.0 mi WSW 5.8 mph - N/A   Clear
1:15 PM 23.0 °F 13.1 °F 15.8 °F 74% 30.25 in 10.0 mi SW 9.2 mph - N/A   Clear
1:35 PM 23.0 °F 13.1 °F 17.6 °F 80% 30.24 in 10.0 mi SW 9.2 mph - N/A   Clear
1:55 PM 23.0 °F 13.9 °F 17.6 °F 80% 30.23 in 10.0 mi SW 8.1 mph - N/A   Clear
2:15 PM 23.0 °F 13.9 °F 17.6 °F 80% 30.23 in 10.0 mi SW 8.1 mph - N/A   Clear
2:35 PM 23.0 °F 13.1 °F 17.6 °F 80% 30.23 in 10.0 mi SW 9.2 mph - N/A   Clear
2:55 PM 23.0 °F 14.7 °F 17.6 °F 80% 30.23 in 10.0 mi SW 6.9 mph - N/A   Clear
3:15 PM 24.8 °F 16.9 °F 17.6 °F 74% 30.23 in 10.0 mi SSW 6.9 mph - N/A   Clear
3:35 PM 23.0 °F 17.0 °F 17.6 °F 80% 30.23 in 10.0 mi South 4.6 mph - N/A   Clear
3:55 PM 23.0 °F 15.8 °F 17.6 °F 80% 30.23 in 10.0 mi SSW 5.8 mph - N/A   Clear
4:15 PM 23.0 °F 15.8 °F 17.6 °F 80% 30.23 in 10.0 mi SSW 5.8 mph - N/A   Clear
4:35 PM 21.2 °F 12.6 °F 17.6 °F 86% 30.22 in 10.0 mi South 6.9 mph - N/A   Clear
4:55 PM 21.2 °F 13.6 °F 15.8 °F 80% 30.22 in 10.0 mi South 5.8 mph - N/A   Clear
5:15 PM 19.4 °F 9.5 °F 14.0 °F 80% 30.23 in 10.0 mi South 8.1 mph - N/A   Clear
5:35 PM 19.4 °F 8.6 °F 15.8 °F 86% 30.22 in 10.0 mi South 9.2 mph - N/A   Clear
5:55 PM 17.6 °F 8.2 °F 14.0 °F 86% 30.21 in 10.0 mi South 6.9 mph - N/A   Clear
6:15 PM 15.8 °F 6.1 °F 12.2 °F 86% 30.21 in 10.0 mi South 6.9 mph - N/A   Clear
6:35 PM 15.8 °F 6.1 °F 12.2 °F 86% 30.20 in 10.0 mi South 6.9 mph - N/A   Clear
6:55 PM 17.6 °F 6.4 °F 14.0 °F 86% 30.19 in 10.0 mi SSE 9.2 mph - N/A   Clear
7:15 PM 17.6 °F 5.0 °F 14.0 °F 86% 30.18 in 10.0 mi South 11.5 mph - N/A   Clear
7:35 PM 17.6 °F 5.7 °F 14.0 °F 86% 30.18 in 10.0 mi South 10.4 mph - N/A   Clear
7:55 PM 15.8 °F 6.1 °F 12.2 °F 86% 30.17 in 10.0 mi SSE 6.9 mph - N/A   Clear
8:15 PM 15.8 °F 5.1 °F 12.2 °F 86% 30.16 in 10.0 mi SSE 8.1 mph - N/A   Clear
8:35 PM 15.8 °F 1.4 °F 12.2 °F 86% 30.15 in 10.0 mi South 13.8 mph - N/A   Clear
9:15 PM 23.0 °F 12.4 °F 17.6 °F 80% 30.14 in 10.0 mi South 10.4 mph - N/A   Clear
9:35 PM 21.2 °F 9.5 °F 15.8 °F 80% 30.14 in 10.0 mi South 11.5 mph - N/A   Clear
9:55 PM 23.0 °F 11.7 °F 17.6 °F 80% 30.14 in 10.0 mi South 11.5 mph - N/A   Clear
10:15 PM 24.8 °F 12.9 °F 19.4 °F 80% 30.13 in 10.0 mi South 13.8 mph - N/A   Clear
10:35 PM 24.8 °F 12.9 °F 19.4 °F 80% 30.12 in 10.0 mi South 13.8 mph - N/A   Clear
10:55 PM 24.8 °F 14.0 °F 19.4 °F 80% 30.11 in 10.0 mi South 11.5 mph - N/A   Clear
11:35 PM 24.8 °F 12.9 °F 19.4 °F 80% 30.11 in 10.0 mi SSW 13.8 mph - N/A   Clear
11:55 PM 24.8 °F 14.0 °F 19.4 °F 80% 30.11 in 10.0 mi SSW 11.5 mph 17.3 mph N/A   Clear